This is the latest recevied weather packets stored in our database for station/object N1IJV-10. If no packets are shown the sender has not sent any weather packets the latest 10 day(s).
| Time | Temp. | Humidity | Pressure | Rain* | Wind** | Luminosity | Snow |
|---|---|---|---|---|---|---|---|
| 1777419523 | 16.67° C | 65% | 1011.8 hPa | 0 mm | - | 45 W/m² | - |
| 1777419222 | 16.67° C | 66% | 1012.2 hPa | 0 mm | - | 48 W/m² | - |
| 1777418918 | 16.67° C | 65% | 1012.3 hPa | 0 mm | - | 48 W/m² | - |
| 1777418614 | 16.67° C | 67% | 1012.2 hPa | 0 mm | - | 52 W/m² | - |
| 1777418311 | 16.67° C | 63% | 1012.3 hPa | 0 mm | - | 57 W/m² | - |
| 1777418006 | 16.67° C | 65% | 1012.2 hPa | 0 mm | - | 54 W/m² | - |
| 1777417702 | 16.67° C | 64% | 1012.2 hPa | 0 mm | - | 60 W/m² | - |
| 1777417398 | 16.67° C | 64% | 1012.1 hPa | 0 mm | - | 70 W/m² | - |
| 1777417095 | 16.67° C | 64% | 1012.1 hPa | 0 mm | - | 73 W/m² | - |
| 1777416790 | 16.67° C | 65% | 1012.1 hPa | 0 mm | - | 74 W/m² | - |
| 1777416485 | 16.67° C | 62% | 1012.1 hPa | 0 mm | - | 108 W/m² | - |
| 1777416181 | 17.22° C | 62% | 1011.9 hPa | 0 mm | - | 92 W/m² | - |
| 1777415876 | 17.22° C | 62% | 1011.8 hPa | 0 mm | - | 107 W/m² | - |
| 1777415572 | 17.78° C | 61% | 1011.5 hPa | 0 mm | - | 125 W/m² | - |
| 1777415267 | 17.22° C | 61% | 1011.6 hPa | 0 mm | - | 240 W/m² | - |
| 1777414963 | 17.22° C | 61% | 1011.5 hPa | 0 mm | - | 239 W/m² | - |
| 1777414663 | 17.22° C | 63% | 1011.4 hPa | 0 mm | - | 236 W/m² | - |
| 1777414358 | 17.78° C | 63% | 1011.7 hPa | 0 mm | - | 234 W/m² | - |
| 1777414053 | 17.22° C | 63% | 1011.6 hPa | 0 mm | - | 252 W/m² | - |
| 1777413747 | 17.78° C | 62% | 1012.3 hPa | 0 mm | - | 269 W/m² | - |
| 1777413443 | 18.33° C | 61% | 1012.3 hPa | 0 mm | - | 276 W/m² | - |
| 1777413140 | 17.78° C | 65% | 1012.3 hPa | 0 mm | - | 299 W/m² | - |
| 1777412835 | 17.78° C | 66% | 1012.6 hPa | 0 mm | - | 314 W/m² | - |
| 1777412534 | 17.22° C | 67% | 1012.5 hPa | 0 mm | - | 313 W/m² | - |
| 1777412232 | 17.22° C | 64% | 1012.4 hPa | 0 mm | - | 130 W/m² | - |
* Rain latest hour (hover to see other rain measurements)
** Current wind speed in m/s (hover to see current wind gust speed)